Temperature
3 4 4 3 3 3 2 3 3 4 4 5 5 4 5 5 4 4 3 3 3 2 2 2 2 2 2 2 1 1 1 1 1 0 0 0 0 0 0 0 0 -0 -0 -0
2 3 3 3 3 3 3 3 3 4 4 5 6 5 5 4 4 3 3 3 2 2 2 2 2 1 1 1 1 1 0 0 0 0 -0 -0 -0 -0 -0 -0 -1 -1 -1 -1
2 3 2 2 3 3 3 3 3 3 4 5 4 4 4 4 3 3 3 2 2 2 2 1 1 1 1 0 0 0 -0 -0 -0 -0 -0 -0 -1 -1 -1 -1 -1 -1 -1 -1
1 1 1 3 4 4 3 3 3 3 4 4 3 4 4 4 3 3 2 2 2 1 1 1 1 1 0 0 -0 -0 -0 -0 -1 -1 -1 -1 -1 -1 -1 -1 -1 -1 -2 -2
1 1 2 4 3 3 2 2 3 3 3 3 3 3 3 3 3 2 2 2 1 1 1 1 0 0 -0 -0 -0 -1 -1 -1 -1 -1 -1 -1 -2 -1 -1 -2 -2 -2 -2 -2
1 1 2 3 3 3 2 1 2 2 2 2 2 0 1 2 2 2 1 1 1 1 0 0 -0 -0 -1 -1 -1 -1 -1 -1 -1 -1 -1 -2 -2 -2 -2 -2 -2 -2 -2 -2
0 1 2 3 2 2 1 2 2 3 2 2 1 1 1 1 1 1 1 0 0 -0 -0 -0 -1 -1 -1 -1 -1 -1 -1 -1 -1 -1 -2 -2 -2 -2 -2 -2 -2 -2 -2 -2
-0 0 1 2 1 1 1 2 2 2 2 2 1 1 1 1 0 0 0 -0 -0 -1 -1 -1 -1 -1 -1 -1 -1 -2 -2 -2 -2 -2 -2 -2 -2 -2 -3 -3 -3 -3 -3 -3
1 1 2 2 2 2 2 2 2 2 1 1 1 0 0 -0 -0 -0 -0 -1 -1 -1 -1 -1 -2 -2 -2 -2 -2 -2 -2 -2 -2 -2 -2 -3 -3 -3 -3 -3 -3 -3 -3 -3
-0 1 2 2 2 2 2 1 1 1 1 1 0 -0 -0 -1 -1 -1 -1 -1 -1 -2 -2 -2 -2 -2 -2 -2 -2 -2 -2 -3 -3 -3 -3 -3 -3 -3 -3 -3 -3 -4 -4 -4
-1 0 1 2 2 2 1 1 1 1 0 0 -0 -0 -1 -1 -1 -1 -2 -2 -2 -2 -2 -2 -3 -3 -3 -3 -3 -3 -3 -3 -3 -3 -3 -4 -4 -4 -4 -4 -4 -4 -4 -4
-0 1 0 1 1 1 1 0 0 0 -0 -0 -1 -1 -1 -1 -2 -2 -2 -2 -3 -3 -3 -3 -3 -3 -3 -3 -3 -3 -3 -3 -3 -4 -4 -4 -4 -4 -4 -4 -4 -4 -4 -4
1 2 1 1 1 1 0 0 -0 -0 -1 -1 -1 -1 -2 -2 -2 -2 -3 -3 -3 -3 -3 -3 -3 -3 -3 -3 -3 -3 -3 -4 -4 -4 -4 -4 -5 -5 -5 -4 -4 -4 -4 -4
1 1 0 0 -0 -0 -0 -1 -1 -1 -1 -1 -2 -2 -2 -2 -3 -3 -3 -3 -3 -3 -3 -4 -3 -3 -4 -4 -4 -4 -4 -4 -4 -4 -4 -5 -5 -5 -5 -5 -5 -4 -4 -5
0 -0 -0 -1 -1 -1 -1 -1 -1 -2 -2 -2 -2 -3 -3 -3 -3 -3 -3 -4 -4 -4 -4 -4 -4 -4 -4 -4 -4 -4 -4 -4 -4 -5 -5 -5 -5 -5 -5 -5 -5 -5 -5 -5
-1 -1 -1 -1 -1 -1 -2 -2 -2 -2 -2 -3 -3 -3 -3 -3 -3 -4 -4 -4 -4 -4 -4 -4 -4 -4 -4 -4 -4 -4 -5 -5 -5 -5 -5 -5 -5 -5 -5 -5 -5 -5 -5 -5
-1 -2 -2 -2 -2 -2 -2 -2 -2 -3 -3 -3 -3 -3 -4 -4 -4 -4 -4 -4 -4 -4 -4 -4 -4 -4 -4 -4 -5 -5 -5 -5 -5 -5 -5 -5 -5 -5 -5 -5 -5 -5 -5 -5
-1 -1 -1 -2 -2 -2 -2 -3 -3 -3 -3 -3 -4 -4 -4 -4 -4 -4 -4 -4 -4 -4 -4 -4 -4 -4 -4 -5 -5 -5 -5 -5 -5 -5 -5 -5 -6 -6 -6 -6 -6 -6 -6 -6
-2 -2 -2 -2 -2 -3 -3 -3 -3 -3 -3 -4 -4 -4 -4 -4 -4 -4 -4 -4 -4 -4 -4 -4 -4 -5 -5 -5 -5 -5 -5 -5 -5 -5 -5 -5 -6 -6 -6 -6 -6 -6 -6 -6
-2 -3 -3 -3 -3 -3 -3 -3 -3 -3 -4 -4 -4 -4 -4 -4 -5 -5 -4 -4 -4 -4 -4 -4 -5 -5 -5 -5 -5 -5 -5 -5 -5 -5 -5 -6 -6 -6 -6 -6 -6 -6 -6 -6
-3 -3 -3 -3 -3 -3 -3 -3 -3 -4 -4 -4 -4 -4 -5 -5 -5 -5 -5 -4 -4 -5 -5 -5 -5 -5 -5 -5 -5 -5 -5 -5 -5 -5 -6 -6 -6 -6 -6 -6 -6 -6 -6 -6
-3 -4 -4 -4 -4 -4 -4 -4 -4 -4 -4 -4 -5 -5 -5 -5 -5 -5 -5 -5 -5 -5 -5 -5 -5 -5 -5 -5 -5 -5 -6 -6 -6 -6 -6 -6 -6 -6 -6 -6 -6 -6 -6 -6
-4 -4 -4 -4 -4 -4 -4 -4 -4 -4 -5 -5 -5 -5 -5 -5 -5 -5 -5 -5 -5 -5 -5 -5 -5 -5 -5 -6 -6 -6 -6 -6 -6 -6 -6 -6 -6 -6 -6 -6 -6 -6 -6 -6
-4 -4 -4 -4 -4 -5 -5 -5 -5 -5 -5 -5 -5 -5 -5 -5 -5 -5 -5 -5 -5 -5 -5 -5 -5 -5 -6 -6 -6 -6 -6 -6 -6 -6 -6 -6 -6 -6 -6 -6 -6 -6 -6 -6
-5 -5 -5 -5 -5 -5 -5 -5 -5 -5 -5 -5 -5 -5 -5 -5 -5 -5 -5 -5 -5 -5 -5 -5 -5 -6 -6 -6 -6 -6 -6 -6 -6 -6 -6 -6 -6 -6 -6 -6 -6 -6 -6 -6
-5 -5 -5 -5 -5 -5 -5 -5 -5 -6 -6 -6 -6 -5 -5 -5 -5 -5 -5 -5 -5 -5 -6 -6 -6 -6 -6 -6 -6 -6 -6 -6 -6 -6 -6 -6 -6 -6 -6 -6 -6 -6 -6 -6
-5 -5 -5 -5 -5 -5 -6 -6 -6 -6 -6 -6 -6 -6 -6 -6 -5 -5 -5 -5 -6 -6 -6 -6 -6 -6 -6 -6 -6 -6 -6 -6 -6 -6 -6 -6 -6 -6 -6 -6 -6 -6 -6 -6
Wind_Speed
9 8 7 9 9 9 10 10 9 9 9 10 7 5 4 2 2 2 2 1 1 1 1 1 0 0 0 0 0 1 1 2 2 2 2 2 2 2 3 3 3 3 3 3
6 8 8 10 12 12 12 12 13 14 14 8 5 3 3 2 3 3 3 2 2 2 2 1 1 1 1 1 1 1 2 2 3 2 3 3 3 3 3 3 3 3 3 3
5 4 5 9 10 11 9 9 9 12 10 5 5 4 4 4 4 4 3 3 2 2 2 2 2 2 1 1 1 1 2 3 3 3 3 3 3 3 3 3 3 3 3 4
4 4 8 7 2 5 7 9 9 8 6 4 4 5 4 3 3 2 2 1 1 2 2 1 1 1 1 1 1 2 3 3 3 3 3 3 3 4 4 3 3 3 4 4
3 6 9 5 2 2 4 7 5 6 6 4 3 4 3 1 1 1 1 1 1 1 1 1 1 1 1 2 2 3 4 4 4 3 3 3 4 4 4 3 3 3 3 3
4 5 7 4 1 0 0 5 2 2 4 3 2 3 3 2 2 2 1 1 1 1 1 1 2 1 2 3 3 3 4 4 3 3 3 3 4 3 3 3 3 3 3 3
7 7 7 3 2 2 2 4 1 2 3 2 3 4 3 3 2 1 1 1 1 1 1 2 2 2 3 3 3 3 3 3 3 2 3 3 3 3 2 2 2 2 2 2
5 7 8 3 3 4 4 2 2 3 3 2 3 3 3 2 2 1 1 1 1 1 2 2 2 1 2 3 3 2 2 2 2 2 2 2 2 2 2 2 2 1 1 1
7 7 3 3 4 3 2 3 3 3 3 3 3 4 3 3 2 2 1 1 1 1 2 3 2 1 3 3 2 1 1 2 2 1 1 1 1 2 1 1 1 1 1 1
6 7 5 5 4 4 3 4 4 3 3 3 4 4 3 3 2 2 2 1 1 1 2 3 2 2 2 2 1 1 1 2 1 1 1 1 1 1 1 1 1 1 1 1
7 7 6 5 4 3 3 3 3 3 3 3 3 4 3 3 3 2 2 2 1 2 3 3 3 3 2 2 1 1 1 1 1 1 1 0 1 1 1 2 2 2 2 2
7 5 4 4 2 2 3 3 3 3 3 3 3 4 3 3 2 2 2 2 2 2 2 3 2 3 2 2 1 1 1 1 1 1 0 1 1 1 2 2 2 3 2 2
5 3 3 4 3 2 2 2 2 2 3 3 3 2 3 3 2 2 2 2 2 2 3 3 2 3 3 2 1 1 1 1 1 1 1 1 1 1 1 2 2 2 2 2
3 2 4 3 3 2 2 2 2 3 3 2 2 2 2 2 2 2 3 3 2 2 3 2 3 3 3 1 1 1 1 1 2 1 1 1 1 1 1 1 1 2 2 2
4 4 4 3 2 2 1 1 2 3 3 3 2 2 2 2 3 3 3 2 2 2 3 2 3 3 2 1 1 1 1 1 1 1 1 1 1 1 1 1 1 1 1 2
3 2 3 3 3 2 2 2 3 4 3 3 3 3 2 2 3 3 3 2 2 3 3 3 3 3 2 1 1 1 1 2 1 1 1 1 1 1 1 0 0 0 1 1
3 4 3 3 4 3 3 4 4 4 3 3 4 3 2 2 2 3 3 2 3 3 3 3 3 3 2 2 1 1 1 1 1 0 0 1 1 1 0 0 0 0 1 1
4 4 4 4 4 4 4 4 3 4 4 3 3 3 3 3 3 3 3 2 2 3 3 3 2 1 1 1 1 1 1 1 1 1 0 0 0 0 0 0 0 0 1 1
2 2 2 2 3 3 3 3 3 3 3 2 2 3 4 3 3 3 3 2 3 3 3 2 2 1 1 2 1 1 1 1 1 1 1 1 0 0 0 0 0 0 0 0
1 1 2 2 2 2 3 3 3 3 3 2 2 3 3 3 3 2 2 3 3 3 2 1 1 1 1 2 2 1 1 1 1 1 1 1 1 1 1 1 0 0 0 0
2 2 2 2 2 3 3 2 2 3 3 2 3 3 4 3 3 2 2 3 2 1 1 2 1 1 2 2 2 1 1 1 1 1 1 1 1 1 1 1 0 0 0 0
2 2 2 2 2 2 2 2 2 2 2 2 3 3 3 3 3 3 3 3 2 2 1 1 1 2 2 2 2 2 1 1 1 1 1 1 1 1 1 1 0 0 0 0
2 2 2 2 2 2 2 2 2 2 3 3 3 3 3 3 3 2 3 2 1 2 1 1 2 3 3 2 2 2 2 1 1 1 1 1 1 1 1 1 1 1 1 1
2 2 2 2 1 1 2 3 2 2 3 3 3 3 3 2 2 2 2 2 1 1 1 2 3 3 2 1 2 2 2 1 1 1 1 1 1 1 1 1 1 1 1 1
2 2 2 2 3 3 3 2 2 2 2 2 2 2 2 2 2 1 1 1 2 1 1 2 2 2 2 1 1 1 1 1 2 1 1 1 1 1 1 1 1 1 1 1
3 3 3 3 3 2 2 2 2 2 1 1 1 1 1 1 1 1 1 1 2 2 1 1 2 2 2 1 1 1 1 1 1 1 1 1 1 1 1 1 1 1 1 1
2 2 1 2 2 2 2 2 2 2 2 2 1 1 1 1 1 1 2 2 2 2 2 2 2 1 2 1 1 1 1 1 1 1 1 1 1 1 1 1 1 1 1 1
Wind_Direction
268 275 260 252 247 229 228 233 243 261 271 277 280 281 272 263 251 251 262 255 239 264 255 215 224 353 15 226 247 248 250 247 244 251 258 258 258 254 253 249 245 238 237 240
276 263 260 263 253 240 237 242 251 267 273 268 274 278 278 267 260 256 249 237 238 255 264 236 214 230 275 282 270 264 259 258 259 253 248 249 248 246 250 246 240 231 233 236
272 284 298 266 242 227 227 226 230 249 258 278 288 279 265 262 256 244 241 233 234 259 267 237 216 215 236 261 272 267 264 266 264 255 253 252 249 244 246 244 240 238 239 234
275 295 254 247 235 214 232 248 240 252 274 281 280 290 279 251 232 248 248 252 269 271 276 272 233 212 227 245 252 261 261 263 262 253 251 251 246 244 243 240 237 234 237 233
248 261 267 266 246 205 230 273 256 249 270 296 316 313 297 15 88 279 264 278 284 275 269 268 277 263 250 260 257 260 261 260 257 249 249 251 248 246 239 238 239 237 233 234
240 253 258 258 181 157 101 280 274 247 262 283 336 296 279 346 358 347 357 356 334 334 323 284 273 267 261 261 257 257 265 267 259 253 250 252 250 248 247 241 237 237 247 239
236 250 265 253 174 136 201 256 303 300 269 248 248 256 279 312 333 354 339 333 336 342 310 279 268 257 258 262 257 263 275 278 263 252 253 257 254 244 240 238 234 234 248 251
213 236 254 183 159 202 235 287 307 304 292 276 277 289 298 308 310 317 332 333 334 324 303 303 292 262 267 265 267 275 281 281 269 268 277 280 259 256 243 229 228 238 251 272
213 228 249 192 225 250 291 295 298 302 308 289 279 279 284 289 286 283 296 309 319 303 302 307 297 262 264 274 279 285 284 282 281 283 274 275 262 268 266 240 216 221 223 249
259 263 262 253 258 272 275 273 290 299 294 279 273 274 275 275 280 292 292 290 294 293 294 300 301 285 264 280 285 271 263 282 287 275 288 302 296 280 274 255 229 223 227 236
255 267 276 256 241 259 279 284 286 291 290 281 275 271 267 259 259 269 277 278 277 269 276 287 304 300 292 297 293 270 266 285 289 265 236 298 321 300 270 248 229 224 222 217
242 245 239 267 263 271 279 275 275 290 300 298 274 268 271 263 260 261 269 275 282 283 282 286 294 293 289 286 259 241 266 292 297 276 274 280 296 328 325 280 275 265 261 254
243 273 269 276 285 270 269 286 299 284 271 281 288 278 271 274 272 268 264 258 258 265 269 275 281 283 280 273 265 242 231 266 284 279 268 279 293 296 322 337 317 292 280 272
244 248 264 262 270 286 293 302 312 303 293 280 281 284 277 281 280 272 265 258 255 256 263 268 275 279 278 260 248 245 233 253 259 251 257 265 276 270 268 298 333 337 327 324
247 234 232 247 272 287 286 292 299 293 293 297 290 274 256 255 267 273 274 266 260 258 263 263 271 279 279 243 226 236 239 250 247 239 250 267 275 270 265 268 272 324 349 350
248 248 234 235 248 258 265 264 260 268 272 275 282 276 262 248 262 274 273 252 244 254 261 259 265 269 255 223 225 235 234 234 227 220 236 268 282 279 279 269 288 346 333 333
216 237 235 240 245 248 247 247 246 251 254 259 265 272 272 259 266 274 275 266 252 255 255 250 254 252 235 213 212 215 222 231 239 236 219 235 256 248 242 212 219 268 300 303
219 222 220 221 231 243 254 258 253 247 249 253 260 263 260 253 254 266 272 279 282 281 266 246 236 222 214 221 202 181 192 207 202 196 192 211 223 205 170 162 160 53 332 328
223 223 230 234 234 232 246 257 257 249 250 243 241 251 258 260 257 262 267 266 262 268 269 244 223 191 209 207 176 167 178 189 192 195 189 207 230 185 159 156 165 219 279 319
220 220 225 237 245 237 246 253 252 253 247 227 229 248 264 268 263 260 265 269 260 246 236 216 205 196 187 177 166 165 178 186 189 193 189 186 190 188 178 169 178 218 281 296
241 245 241 243 254 253 241 237 239 249 254 227 222 239 255 267 264 255 254 275 276 222 207 194 173 171 170 170 167 165 169 169 168 175 179 179 177 174 176 165 177 234 282 298
236 235 236 239 248 268 265 248 238 240 247 247 242 240 248 261 263 265 261 251 247 211 193 171 163 173 175 166 152 152 154 156 164 168 167 166 171 178 184 179 191 237 264 272
244 240 239 239 238 253 275 269 247 233 236 240 239 237 240 249 251 249 269 257 222 212 192 178 184 184 175 146 142 152 159 163 171 175 176 179 183 188 191 201 219 229 244 263
256 253 249 246 215 237 265 270 256 246 243 249 246 238 232 242 264 254 237 219 215 210 188 185 186 178 150 122 141 152 157 159 163 171 179 180 183 191 202 214 224 234 241 254
248 250 242 233 236 241 244 249 253 253 250 250 254 253 242 228 228 227 182 177 186 170 158 178 170 152 128 131 147 155 154 162 163 159 169 181 193 203 209 217 224 233 246 258
247 247 249 246 242 240 233 225 231 232 214 235 262 258 224 154 139 140 135 137 145 143 131 129 133 130 127 134 138 146 155 163 164 160 177 191 196 202 215 230 244 255 263 266
253 253 253 261 251 226 212 212 220 229 221 213 229 237 159 136 134 133 127 125 126 122 117 115 117 122 127 129 128 129 139 147 150 155 172 191 203 217 227 237 252 258 263 263
Height
1469 1465 1466 1466 1465 1467 1469 1466 1466 1456 1452 1447 1446 1445 1445 1445 1445 1445 1445 1445 1445 1445 1445 1444 1444 1443 1442 1442 1441 1441 1441 1440 1440 1440 1440 1440 1439 1439 1439 1439 1438 1439 1439 1439
1470 1464 1463 1462 1459 1460 1460 1459 1457 1453 1449 1443 1443 1443 1442 1442 1443 1442 1443 1443 1443 1443 1442 1442 1441 1440 1440 1439 1438 1438 1438 1437 1437 1436 1436 1436 1435 1435 1435 1435 1435 1435 1435 1435
1469 1463 1463 1461 1451 1451 1451 1449 1449 1449 1444 1441 1441 1440 1440 1440 1440 1440 1440 1440 1440 1440 1439 1439 1438 1438 1437 1436 1435 1435 1434 1434 1433 1432 1432 1432 1431 1431 1431 1431 1431 1431 1431 1431
1471 1468 1467 1448 1441 1440 1443 1442 1441 1440 1439 1439 1439 1438 1438 1437 1437 1437 1437 1437 1437 1437 1436 1436 1435 1435 1434 1433 1432 1432 1431 1430 1430 1429 1428 1428 1427 1427 1427 1427 1427 1427 1427 1427
1471 1466 1453 1444 1441 1441 1443 1442 1438 1438 1437 1438 1437 1436 1435 1435 1435 1435 1435 1435 1435 1434 1433 1433 1432 1432 1431 1430 1429 1428 1428 1427 1426 1425 1424 1424 1423 1423 1423 1423 1423 1423 1423 1423
1467 1464 1455 1443 1440 1439 1442 1443 1437 1436 1436 1436 1436 1438 1435 1433 1433 1433 1433 1432 1432 1431 1430 1430 1429 1428 1428 1427 1426 1425 1424 1424 1423 1422 1421 1420 1420 1419 1419 1419 1420 1420 1420 1420
1465 1461 1449 1440 1439 1440 1446 1441 1436 1434 1434 1434 1434 1435 1433 1431 1431 1430 1430 1430 1429 1429 1428 1427 1426 1425 1424 1423 1423 1422 1421 1421 1420 1419 1418 1417 1417 1416 1416 1416 1416 1416 1416 1417
1460 1457 1449 1438 1438 1440 1439 1434 1433 1433 1433 1432 1431 1431 1430 1429 1428 1427 1427 1427 1426 1426 1425 1424 1423 1422 1421 1420 1420 1419 1418 1417 1416 1416 1415 1415 1414 1414 1413 1413 1413 1413 1413 1414
1448 1444 1436 1435 1434 1434 1433 1433 1432 1431 1430 1430 1429 1428 1427 1426 1426 1425 1424 1424 1423 1423 1422 1421 1420 1419 1418 1417 1417 1416 1415 1414 1414 1413 1413 1412 1411 1411 1411 1411 1411 1410 1411 1411
1441 1434 1432 1432 1431 1431 1431 1430 1430 1429 1428 1427 1426 1425 1424 1424 1423 1422 1422 1421 1420 1419 1418 1418 1417 1416 1415 1414 1414 1413 1412 1411 1411 1410 1410 1409 1409 1409 1409 1409 1408 1408 1408 1409
1437 1432 1429 1428 1428 1428 1428 1427 1427 1426 1425 1424 1423 1422 1422 1421 1420 1419 1419 1418 1417 1416 1416 1415 1414 1413 1413 1412 1411 1410 1409 1409 1408 1408 1407 1407 1407 1407 1407 1407 1407 1407 1407 1407
1431 1427 1427 1425 1425 1425 1425 1424 1423 1423 1422 1421 1420 1419 1418 1418 1417 1416 1415 1415 1414 1414 1413 1412 1411 1411 1410 1409 1409 1408 1407 1407 1406 1406 1405 1405 1405 1405 1405 1406 1406 1405 1406 1406
1423 1422 1422 1422 1422 1422 1421 1421 1420 1419 1419 1418 1417 1416 1415 1414 1414 1413 1412 1412 1411 1411 1410 1409 1409 1408 1407 1407 1406 1406 1405 1404 1404 1404 1404 1403 1403 1403 1403 1404 1404 1404 1404 1404
1419 1419 1419 1418 1419 1418 1418 1417 1417 1416 1415 1414 1413 1413 1412 1411 1410 1410 1409 1409 1409 1408 1407 1407 1406 1405 1405 1405 1404 1404 1403 1403 1402 1402 1402 1402 1402 1402 1402 1401 1401 1402 1403 1403
1415 1415 1415 1415 1415 1415 1415 1414 1414 1413 1412 1411 1410 1410 1409 1408 1407 1407 1406 1406 1406 1405 1405 1404 1403 1403 1403 1402 1402 1402 1401 1401 1401 1401 1400 1400 1401 1401 1401 1400 1401 1401 1401 1402
1411 1411 1411 1411 1411 1412 1411 1411 1411 1410 1409 1408 1407 1407 1406 1406 1405 1404 1403 1403 1403 1402 1402 1401 1401 1401 1400 1400 1400 1400 1400 1400 1400 1399 1399 1399 1399 1400 1400 1400 1400 1400 1400 1401
1408 1408 1408 1408 1408 1408 1408 1408 1408 1407 1406 1406 1405 1404 1403 1402 1402 1401 1400 1400 1400 1399 1399 1399 1398 1398 1398 1398 1398 1398 1398 1398 1398 1398 1398 1398 1399 1399 1399 1399 1399 1399 1400 1400
1405 1405 1405 1405 1405 1405 1405 1405 1404 1404 1403 1403 1402 1401 1400 1400 1399 1398 1398 1397 1397 1397 1397 1396 1396 1396 1396 1396 1397 1397 1397 1397 1397 1397 1397 1397 1398 1398 1398 1398 1399 1399 1399 1399
1402 1402 1402 1402 1402 1402 1402 1401 1401 1401 1400 1400 1399 1398 1398 1397 1397 1396 1395 1395 1394 1394 1394 1394 1394 1394 1395 1395 1395 1396 1396 1396 1396 1397 1397 1397 1397 1397 1397 1398 1398 1398 1398 1398
1399 1399 1399 1399 1399 1399 1399 1398 1398 1397 1397 1397 1396 1395 1395 1394 1394 1394 1393 1392 1392 1392 1392 1392 1392 1393 1393 1394 1394 1394 1395 1395 1396 1396 1396 1396 1396 1396 1397 1397 1397 1398 1398 1398
1396 1396 1396 1396 1396 1396 1395 1395 1395 1394 1394 1393 1393 1393 1392 1392 1392 1391 1391 1390 1390 1391 1390 1391 1391 1391 1392 1392 1393 1393 1394 1394 1395 1395 1395 1395 1395 1396 1396 1396 1397 1397 1397 1397
1393 1393 1393 1393 1392 1392 1392 1392 1392 1391 1391 1390 1390 1390 1390 1389 1389 1389 1389 1389 1389 1389 1389 1389 1390 1390 1390 1391 1392 1392 1393 1393 1394 1394 1394 1394 1395 1395 1395 1396 1396 1397 1397 1397
1390 1390 1390 1390 1389 1389 1389 1389 1388 1388 1388 1387 1387 1387 1387 1387 1387 1386 1386 1387 1387 1387 1388 1388 1388 1389 1389 1390 1391 1391 1392 1392 1392 1393 1393 1394 1394 1394 1395 1395 1396 1396 1396 1397
1387 1387 1387 1386 1386 1386 1385 1385 1385 1385 1385 1385 1385 1385 1385 1384 1384 1385 1385 1385 1385 1386 1386 1387 1387 1388 1388 1389 1390 1390 1391 1391 1392 1392 1392 1393 1393 1394 1394 1395 1395 1396 1396 1396
1384 1384 1384 1383 1383 1383 1383 1382 1382 1382 1382 1382 1382 1382 1382 1382 1382 1383 1383 1383 1384 1384 1385 1386 1386 1387 1387 1388 1389 1389 1390 1390 1391 1391 1392 1392 1393 1393 1394 1394 1394 1395 1395 1395
1381 1381 1380 1380 1380 1380 1380 1380 1380 1379 1380 1380 1380 1380 1380 1381 1381 1381 1382 1382 1383 1383 1384 1385 1385 1386 1387 1387 1388 1389 1389 1390 1390 1391 1391 1392 1392 1392 1393 1393 1393 1394 1394 1394
1378 1378 1378 1378 1378 1378 1378 1377 1377 1377 1377 1378 1378 1378 1379 1379 1380 1380 1381 1381 1382 1382 1383 1384 1384 1385 1386 1386 1387 1388 1389 1389 1390 1390 1391 1391 1391 1392 1392 1392 1392 1393 1393 1393